R.catalunya — EALC — position and weather

sailwx.info

Track history (hours):
 
Tides and Currents Weather Stations Pressure Air Temp Water Temp Dewpoint Dewpoint Depression Visibility Wind Speed Wind Dir Waves Ship Positions

R.catalunya

Last reported at 2014-Oct-30 23:33 UTC. Time now 2014-Oct-30 23:53 UTC.
Position N 41°19' E 002°10'.

; draft 6.5 m.

Type: Tug. MMSI: 224149970.

Date/timePositionNaut miles runAvg speedWind from/ knotsBaromVisibWave heightAir tempDewpointWater temp
2014-Oct-30 23:33N 41°19' E 002°10'2 2.3
2014-Oct-30 22:33N 41°22' E 002°10'2 2.3
2014-Oct-30 21:33N 41°19' E 002°10'0 0.1
2014-Oct-30 20:27N 41°19' E 002°10'2 1.9
2014-Oct-30 19:19N 41°21' E 002°10'1 0.1
2014-Oct-30 06:23N 41°20' E 002°10'2 1.7
2014-Oct-30 05:11N 41°18' E 002°10'2 0.5
2014-Oct-30 00:25N 41°21' E 002°09'0 0.0
2014-Oct-29 18:21N 41°21' E 002°09'0 0.0
2014-Oct-29 17:12N 41°21' E 002°09'0 0.0
2014-Oct-29 14:24N 41°21' E 002°09'0 0.0
2014-Oct-29 13:28N 41°21' E 002°09'0 0.0
2014-Oct-29 10:20N 41°21' E 002°09'0 0.0
2014-Oct-29 09:32N 41°21' E 002°09'1 1.2
2014-Oct-29 08:33N 41°22' E 002°10'1 1.5
2014-Oct-29 07:33N 41°20' E 002°10'1 0.5
2014-Oct-29 06:06N 41°21' E 002°09'0 0.0
2014-Oct-29 04:29N 41°21' E 002°09'0 0.0
2014-Oct-29 03:33N 41°21' E 002°09'0 0.0
2014-Oct-29 02:17N 41°21' E 002°09'0 0.3
2014-Oct-29 01:19N 41°20' E 002°09'1 0.6
2014-Oct-29 00:12N 41°20' E 002°10'1 1.0
2014-Oct-28 23:29N 41°21' E 002°09'0 0.0
2014-Oct-28 22:12N 41°21' E 002°09'0 0.0
2014-Oct-28 21:30N 41°21' E 002°09'0 0.0
2014-Oct-28 20:33N 41°21' E 002°09'2 0.1
2014-Oct-28 06:32N 41°19' E 002°10'2 0.8
2014-Oct-28 04:18N 41°21' E 002°09'1 0.5
2014-Oct-28 03:06N 41°20' E 002°09'1 1.6
2014-Oct-28 02:28N 41°21' E 002°10'1 1.0
2014-Oct-28 01:33N 41°20' E 002°09'2 0.1
2014-Oct-27 02:31N 41°21' E 002°10'1 0.8
2014-Oct-27 01:14N 41°21' E 002°09'1 0.6
2014-Oct-27 00:07N 41°20' E 002°10'1 2.2
2014-Oct-26 23:30N 41°19' E 002°10'2 0.9
2014-Oct-26 21:27N 41°21' E 002°09'0 0.0
2014-Oct-26 16:23N 41°21' E 002°09'0 0.0
2014-Oct-26 10:30N 41°21' E 002°09'0 0.0
2014-Oct-26 09:23N 41°21' E 002°09'0 0.0
2014-Oct-26 08:30N 41°21' E 002°09'0 0.0
2014-Oct-26 07:31N 41°21' E 002°09'0 0.0
2014-Oct-26 06:32N 41°21' E 002°09'0 0.2
2014-Oct-26 05:32N 41°21' E 002°09'0 0.2
2014-Oct-26 04:33N 41°21' E 002°09'0 0.0
2014-Oct-26 03:33N 41°21' E 002°09'0 0.0
2014-Oct-26 02:33N 41°21' E 002°09'0 0.0
2014-Oct-26 01:08N 41°21' E 002°09'0 0.0
2014-Oct-25 23:33N 41°21' E 002°09'0 0.4
2014-Oct-25 22:33N 41°20' E 002°09'0 0.4
2014-Oct-25 21:32N 41°21' E 002°09'0 0.0
2014-Oct-25 20:33N 41°21' E 002°09'0 0.0
2014-Oct-25 19:33N 41°21' E 002°09'0 0.0
2014-Oct-25 18:33N 41°21' E 002°09'0 0.0
2014-Oct-25 16:26N 41°21' E 002°09'0 0.0
2014-Oct-25 12:26N 41°21' E 002°09'0 0.0
2014-Oct-25 11:18N 41°21' E 002°09'0 0.0
2014-Oct-25 10:33N 41°21' E 002°09'2 0.1
2014-Oct-24 20:23N 41°22' E 002°11'0 0.0
2014-Oct-24 19:21N 41°22' E 002°11'0 0.0
2014-Oct-24 18:28N 41°22' E 002°11'0 0.0
2014-Oct-24 14:19N 41°22' E 002°11'0 0.0
2014-Oct-24 12:33N 41°22' E 002°11'0 0.0
2014-Oct-24 11:12N 41°22' E 002°11'0 0.0
2014-Oct-23 15:23N 41°22' E 002°11'2 0.0
2014-Oct-21 20:11N 41°21' E 002°09'0 0.0
2014-Oct-21 17:33N 41°21' E 002°09'0 0.0
2014-Oct-21 15:11N 41°21' E 002°09'0 0.0
2014-Oct-21 14:17N 41°21' E 002°09'0 0.0
2014-Oct-21 13:26N 41°21' E 002°09'  
Track history (hours):
 
Tides and Currents Weather Stations Pressure Air Temp Water Temp Dewpoint Dewpoint Depression Visibility Wind Speed Wind Dir Waves Ship Positions

R.catalunya

Last reported at 2014-Oct-30 23:33 UTC. Time now 2014-Oct-30 23:53 UTC.
Position N 41°19' E 002°10'.

; draft 6.5 m.

Type: Tug. MMSI: 224149970.

Date/timePositionNaut miles runAvg speedWind from/ knotsBaromVisibWave heightAir tempDewpointWater temp
2014-Oct-30 23:33N 41°19' E 002°10'2 2.3
2014-Oct-30 22:33N 41°22' E 002°10'2 2.3
2014-Oct-30 21:33N 41°19' E 002°10'0 0.1
2014-Oct-30 20:27N 41°19' E 002°10'2 1.9
2014-Oct-30 19:19N 41°21' E 002°10'1 0.1
2014-Oct-30 06:23N 41°20' E 002°10'2 1.7
2014-Oct-30 05:11N 41°18' E 002°10'2 0.5
2014-Oct-30 00:25N 41°21' E 002°09'0 0.0
2014-Oct-29 18:21N 41°21' E 002°09'0 0.0
2014-Oct-29 17:12N 41°21' E 002°09'0 0.0
2014-Oct-29 14:24N 41°21' E 002°09'0 0.0
2014-Oct-29 13:28N 41°21' E 002°09'0 0.0
2014-Oct-29 10:20N 41°21' E 002°09'0 0.0
2014-Oct-29 09:32N 41°21' E 002°09'1 1.2
2014-Oct-29 08:33N 41°22' E 002°10'1 1.5
2014-Oct-29 07:33N 41°20' E 002°10'1 0.5
2014-Oct-29 06:06N 41°21' E 002°09'0 0.0
2014-Oct-29 04:29N 41°21' E 002°09'0 0.0
2014-Oct-29 03:33N 41°21' E 002°09'0 0.0
2014-Oct-29 02:17N 41°21' E 002°09'0 0.3
2014-Oct-29 01:19N 41°20' E 002°09'1 0.6
2014-Oct-29 00:12N 41°20' E 002°10'1 1.0
2014-Oct-28 23:29N 41°21' E 002°09'0 0.0
2014-Oct-28 22:12N 41°21' E 002°09'0 0.0
2014-Oct-28 21:30N 41°21' E 002°09'0 0.0
2014-Oct-28 20:33N 41°21' E 002°09'2 0.1
2014-Oct-28 06:32N 41°19' E 002°10'2 0.8
2014-Oct-28 04:18N 41°21' E 002°09'1 0.5
2014-Oct-28 03:06N 41°20' E 002°09'1 1.6
2014-Oct-28 02:28N 41°21' E 002°10'1 1.0
2014-Oct-28 01:33N 41°20' E 002°09'2 0.1
2014-Oct-27 02:31N 41°21' E 002°10'1 0.8
2014-Oct-27 01:14N 41°21' E 002°09'1 0.6
2014-Oct-27 00:07N 41°20' E 002°10'1 2.2
2014-Oct-26 23:30N 41°19' E 002°10'2 0.9
2014-Oct-26 21:27N 41°21' E 002°09'0 0.0
2014-Oct-26 16:23N 41°21' E 002°09'0 0.0
2014-Oct-26 10:30N 41°21' E 002°09'0 0.0
2014-Oct-26 09:23N 41°21' E 002°09'0 0.0
2014-Oct-26 08:30N 41°21' E 002°09'0 0.0
2014-Oct-26 07:31N 41°21' E 002°09'0 0.0
2014-Oct-26 06:32N 41°21' E 002°09'0 0.2
2014-Oct-26 05:32N 41°21' E 002°09'0 0.2
2014-Oct-26 04:33N 41°21' E 002°09'0 0.0
2014-Oct-26 03:33N 41°21' E 002°09'0 0.0
2014-Oct-26 02:33N 41°21' E 002°09'0 0.0
2014-Oct-26 01:08N 41°21' E 002°09'0 0.0
2014-Oct-25 23:33N 41°21' E 002°09'0 0.4
2014-Oct-25 22:33N 41°20' E 002°09'0 0.4
2014-Oct-25 21:32N 41°21' E 002°09'0 0.0
2014-Oct-25 20:33N 41°21' E 002°09'0 0.0
2014-Oct-25 19:33N 41°21' E 002°09'0 0.0
2014-Oct-25 18:33N 41°21' E 002°09'0 0.0
2014-Oct-25 16:26N 41°21' E 002°09'0 0.0
2014-Oct-25 12:26N 41°21' E 002°09'0 0.0
2014-Oct-25 11:18N 41°21' E 002°09'0 0.0
2014-Oct-25 10:33N 41°21' E 002°09'2 0.1
2014-Oct-24 20:23N 41°22' E 002°11'0 0.0
2014-Oct-24 19:21N 41°22' E 002°11'0 0.0
2014-Oct-24 18:28N 41°22' E 002°11'0 0.0
2014-Oct-24 14:19N 41°22' E 002°11'0 0.0
2014-Oct-24 12:33N 41°22' E 002°11'0 0.0
2014-Oct-24 11:12N 41°22' E 002°11'0 0.0
2014-Oct-23 15:23N 41°22' E 002°11'2 0.0
2014-Oct-21 20:11N 41°21' E 002°09'0 0.0
2014-Oct-21 17:33N 41°21' E 002°09'0 0.0
2014-Oct-21 15:11N 41°21' E 002°09'0 0.0
2014-Oct-21 14:17N 41°21' E 002°09'0 0.0
2014-Oct-21 13:26N 41°21' E 002°09'  

Dump ship's entire track history